Location: Unspecified
(42.9386°N, 0.0000°E)
Time: 18:37:30
(UTC+00:00)

Hubble Space Telescope - Visible Passes

Search period start: 24 June 2019 00:00
Search period end: 04 July 2019 00:00
Orbit: 536 x 540 km, 28.5° (Epoch: 24 June)

Date Brightness Start Highest point End Pass type
(mag) Time Alt. Az. Time Alt. Az. Time Alt. Az.
27 Jun 3.0 21:00:05 10° S 21:00:21 10° S 21:00:21 10° S visible
28 Jun 2.9 20:48:59 10° S 20:49:54 11° S 20:50:33 10° SSE visible
29 Jun 2.9 20:38:11 10° SSW 20:39:13 11° S 20:40:14 10° SSE visible
30 Jun 3.0 20:27:35 10° SSW 20:28:32 11° S 20:29:30 10° SSE visible
01 Jul 3.0 20:17:11 10° SSW 20:17:51 10° S 20:18:32 10° S visible
